Wetbulb
70.15 72.45 71.94 72.02 71.64 71.09 70.81 71.05 71.44 71.23 71.32 70.97 71.02 71.07 70.63 70.75 71.70 71.26 71.56 72.56 73.14 73.42 72.80 72.33 73.09 72.88 72.08 71.98 71.79 71.71 71.83 72.03 71.65 71.24 70.92 70.16 70.07 69.90 69.71 69.32 70.18 69.06 69.82
71.71 72.76 71.61 71.66 71.78 71.01 70.92 71.18 71.82 71.48 71.29 70.67 71.05 71.41 71.38 71.56 71.40 71.03 71.11 71.95 72.49 73.27 73.01 72.11 71.81 71.70 71.86 71.76 71.51 71.53 71.55 71.69 71.80 71.29 70.92 70.02 69.61 69.58 69.30 69.60 70.38 69.94 69.53
71.84 72.82 71.82 71.62 71.76 71.33 71.13 71.40 71.57 71.72 70.97 71.27 71.63 71.15 71.21 71.89 71.50 71.45 71.59 71.94 72.48 73.19 72.13 71.55 70.97 70.82 70.67 70.31 70.67 70.46 69.93 70.26 71.03 71.63 71.71 67.67 68.69 69.35 69.52 69.53 69.28 69.36 69.38
71.96 72.57 72.15 71.36 71.70 71.85 71.56 72.10 72.31 72.07 71.95 71.89 71.40 71.62 71.89 72.41 72.29 71.85 71.81 72.09 72.06 71.92 71.32 70.86 70.97 70.35 69.36 68.74 68.91 68.28 68.04 68.72 68.96 70.04 69.20 68.15 68.20 69.67 69.99 69.87 69.87 69.53 69.28
71.59 72.24 72.74 71.52 71.29 71.87 71.82 72.17 72.15 72.35 72.14 71.84 71.69 71.66 72.06 72.22 72.12 71.86 71.13 71.04 70.99 71.27 70.30 69.97 69.08 68.13 67.82 68.11 67.75 67.38 67.17 65.76 66.48 68.33 68.12 69.68 69.45 70.32 70.33 70.41 70.24 69.82 69.49
71.37 72.07 71.14 70.94 71.31 71.80 72.06 71.91 71.55 71.24 71.06 71.45 71.83 71.60 71.80 71.38 71.51 71.76 70.79 70.70 71.29 70.64 69.54 69.07 68.60 67.99 68.02 67.53 67.13 66.78 66.67 65.62 65.53 68.52 68.16 67.38 70.20 70.52 70.31 69.87 69.93 70.19 69.15
71.34 72.28 72.29 70.62 71.26 71.87 71.90 71.41 71.11 70.64 70.80 71.23 71.60 71.75 71.25 71.29 71.14 71.17 71.13 70.90 70.62 70.11 68.92 68.55 68.16 67.76 67.66 67.27 66.75 66.78 66.36 66.04 69.70 68.88 69.55 69.57 69.12 70.56 70.40 70.21 69.86 68.75 68.02
71.16 72.00 72.14 71.38 71.49 71.19 71.19 70.97 70.43 70.40 70.28 70.47 70.76 71.23 71.26 71.10 70.78 70.70 70.63 70.19 69.63 69.17 68.96 68.12 68.17 67.62 67.46 67.21 66.74 66.66 65.85 66.28 69.58 70.16 69.98 69.10 68.75 70.04 69.88 68.80 68.38 68.55 69.32
71.30 71.57 71.89 72.10 71.70 70.35 69.61 69.45 69.33 69.87 69.98 69.60 69.46 69.76 70.32 70.01 70.06 70.03 69.64 69.05 68.67 68.75 68.37 67.96 67.43 67.43 67.07 67.33 66.55 65.77 65.16 66.49 68.47 68.52 68.84 69.83 70.02 71.23 70.87 70.48 70.15 69.84 69.86
69.54 70.25 71.31 71.38 71.18 70.98 71.01 68.91 69.06 69.20 69.42 69.21 68.26 68.06 68.57 69.00 69.08 69.03 68.49 68.56 68.37 68.26 67.75 67.18 67.07 66.97 66.67 66.92 66.18 65.45 66.00 68.41 69.04 68.80 69.21 70.17 71.20 71.73 70.91 70.33 70.06 69.21 68.37
68.67 69.52 70.14 70.27 70.30 70.69 70.31 69.94 69.00 69.11 69.03 68.51 67.77 67.25 66.82 67.24 67.69 67.77 67.02 67.49 67.14 66.50 66.85 67.19 66.80 66.63 66.58 66.73 66.08 67.12 68.99 69.65 69.33 70.47 71.98 69.92 70.71 70.59 69.99 69.17 68.16 67.09 65.96
67.72 67.46 68.33 69.81 69.52 69.94 68.68 69.72 69.57 68.47 68.44 68.23 67.53 68.04 67.33 68.12 67.61 66.93 66.92 66.60 66.37 66.39 66.54 66.88 66.82 66.84 67.13 69.81 70.84 68.89 71.03 71.74 71.51 71.37 70.72 68.52 69.95 69.82 69.12 67.62 66.24 65.10 64.04
67.71 68.19 68.87 68.78 69.35 68.36 68.50 69.24 68.75 69.74 69.85 70.26 69.85 69.04 68.56 67.93 67.45 66.97 66.54 66.46 67.87 67.14 69.28 69.44 70.27 70.39 71.27 71.29 71.73 71.12 70.95 70.85 69.66 67.48 64.92 66.81 68.91 69.09 67.78 65.71 64.52 63.21 62.02
66.83 67.31 68.13 68.63 68.64 68.59 68.06 67.70 68.35 69.48 69.97 69.80 70.61 71.41 70.56 68.67 68.83 68.06 67.13 68.40 69.70 70.38 71.34 70.42 69.04 70.05 70.69 70.38 70.10 68.87 68.32 67.74 65.53 63.22 62.29 64.38 67.18 66.61 65.91 64.50 62.90 61.57 60.38
65.93 66.84 67.59 68.20 68.57 68.86 68.01 67.41 68.49 69.30 69.90 70.52 71.12 71.77 71.02 69.93 70.28 70.24 69.95 70.33 71.36 71.56 71.22 69.08 67.93 68.32 67.23 68.02 67.60 66.92 66.28 66.84 66.53 63.58 59.22 60.47 63.58 65.06 64.43 63.69 62.49 60.99 59.16
65.87 66.61 67.62 67.83 68.59 68.81 67.97 68.15 68.78 69.67 71.19 71.03 70.82 70.98 71.95 71.30 71.22 70.94 70.78 69.95 69.87 70.16 69.80 68.36 68.93 69.21 67.07 65.43 64.06 63.90 63.94 64.85 64.67 64.66 58.98 55.60 57.52 58.83 60.78 61.74 61.34 59.64 58.01
65.90 66.69 67.09 67.79 68.63 68.47 68.48 68.31 69.12 70.07 70.71 70.56 70.59 71.90 71.51 71.75 71.92 70.93 69.87 69.06 68.70 68.19 67.15 67.49 67.80 66.63 64.01 62.85 61.59 61.27 61.15 61.49 61.29 61.50 62.42 61.82 55.81 53.99 55.42 56.54 57.02 56.76 56.24
65.79 66.15 67.15 67.29 68.24 68.39 68.41 68.41 68.12 69.70 70.35 70.41 70.41 71.26 70.83 70.78 71.02 70.08 68.78 67.96 67.72 67.45 66.69 66.43 66.06 64.09 62.34 61.13 59.87 59.28 58.81 58.68 58.22 57.94 57.54 57.84 57.44 56.16 53.09 53.11 53.90 53.76 53.98
66.12 66.38 66.77 67.86 67.93 68.33 68.58 68.98 69.60 70.60 70.20 69.91 69.95 70.35 69.92 69.06 69.03 69.08 68.28 66.91 66.88 66.06 65.03 64.73 64.48 63.47 60.58 59.16 57.76 57.51 57.25 56.67 56.01 55.13 54.17 53.62 53.04 53.21 52.41 49.57 50.18 50.41 51.24
66.24 66.81 67.33 67.59 67.93 68.37 68.21 68.92 69.37 69.29 69.08 68.92 69.27 69.18 68.62 68.01 67.06 67.36 66.33 65.50 65.49 64.70 63.32 62.72 62.96 62.12 59.88 57.65 55.54 54.81 55.12 55.19 55.05 53.89 52.62 51.51 51.15 51.19 51.12 50.94 51.61 49.12 48.07
66.18 66.43 66.77 67.13 67.86 68.09 67.10 66.49 66.94 66.86 67.21 67.40 67.88 66.90 66.88 66.35 65.65 65.74 64.88 64.06 63.67 62.73 62.22 61.15 61.22 59.69 57.08 56.69 54.17 52.63 52.41 53.08 52.93 52.26 52.14 50.48 49.20 49.28 49.66 49.45 49.87 50.24 49.75
65.76 65.76 66.63 67.45 67.86 67.51 67.34 67.50 67.37 67.50 67.09 67.10 66.08 64.89 64.86 64.13 64.08 63.79 63.68 62.52 61.60 60.68 59.22 59.31 59.97 57.50 56.27 56.45 55.50 53.22 48.99 49.30 50.28 50.75 50.49 48.86 48.54 48.39 47.82 48.42 48.57 48.72 49.27
65.39 66.41 66.07 67.17 67.57 67.84 68.18 68.44 67.46 66.20 64.63 63.68 62.66 62.70 62.39 62.63 62.41 62.08 62.29 61.52 60.60 59.44 58.71 59.74 59.33 57.83 54.46 55.73 56.86 56.06 51.63 50.80 48.42 49.06 48.59 48.34 48.22 47.86 47.70 47.50 47.37 47.37 48.01
66.23 67.75 67.11 67.04 66.89 67.69 68.47 66.81 64.85 63.69 63.26 64.23 63.16 63.02 60.84 61.10 60.70 60.62 60.34 60.27 60.16 59.27 58.76 58.73 58.50 57.96 56.81 54.44 55.99 55.93 57.70 54.93 50.45 45.80 47.59 47.25 47.80 46.81 47.34 47.53 47.43 47.24 47.42
66.96 66.65 67.05 66.46 65.36 66.62 67.49 66.55 66.00 67.05 66.78 65.67 63.29 61.61 61.16 60.32 59.91 58.93 59.03 58.92 58.48 57.91 58.12 58.01 57.76 57.71 57.05 55.89 54.91 54.51 55.76 56.30 56.35 52.41 45.83 44.62 46.27 47.11 47.59 47.75 47.46 47.36 46.64
67.14 67.85 67.52 66.47 65.60 66.95 66.08 66.44 66.97 67.23 66.46 62.82 61.67 60.74 60.36 59.69 58.43 57.90 57.26 57.49 57.53 57.12 56.71 56.98 57.64 57.27 56.72 56.57 56.28 54.73 53.91 53.53 52.80 51.29 49.16 45.86 45.24 46.00 47.79 48.41 47.33 46.55 46.27
MSLP
1010.88 1012.34 1013.81 1014.39 1014.84 1015.04 1015.01 1015.10 1015.09 1015.06 1015.05 1015.20 1015.28 1015.29 1015.39 1015.55 1015.81 1016.13 1016.20 1016.12 1016.15 1016.39 1016.57 1016.71 1016.92 1017.12 1017.40 1017.47 1017.69 1017.80 1017.93 1017.85 1018.13 1018.18 1018.28 1018.28 1018.40 1018.57 1018.67 1018.77 1018.66 1018.63 1019.40
1010.91 1012.42 1013.92 1014.47 1014.91 1015.25 1015.26 1015.31 1015.40 1015.36 1015.38 1015.63 1015.75 1015.77 1015.89 1015.99 1016.23 1016.45 1016.56 1016.52 1016.52 1016.74 1016.93 1017.22 1017.50 1017.65 1017.73 1018.03 1018.13 1018.22 1018.26 1018.34 1018.44 1018.37 1018.27 1018.55 1018.84 1019.08 1019.22 1019.29 1019.07 1019.42 1019.81
1011.13 1012.39 1013.77 1014.57 1014.99 1015.33 1015.48 1015.53 1015.59 1015.64 1015.79 1015.99 1016.05 1016.19 1016.33 1016.46 1016.62 1016.76 1016.77 1016.86 1017.03 1017.17 1017.43 1017.72 1017.77 1017.91 1018.14 1018.42 1018.54 1018.62 1018.75 1018.81 1018.72 1018.41 1018.18 1017.45 1018.68 1019.44 1019.62 1019.68 1019.89 1019.83 1019.96
1011.24 1012.38 1013.34 1014.68 1015.09 1015.44 1015.71 1015.69 1015.86 1015.94 1016.11 1016.35 1016.45 1016.47 1016.63 1016.75 1016.95 1017.12 1017.29 1017.35 1017.51 1017.58 1017.69 1018.03 1018.18 1018.39 1018.64 1018.85 1018.99 1019.09 1019.04 1019.00 1018.81 1018.19 1017.25 1017.58 1018.65 1019.68 1019.85 1019.94 1019.96 1020.03 1020.00
1011.53 1012.25 1013.37 1014.75 1015.22 1015.56 1015.80 1015.89 1016.05 1016.15 1016.34 1016.61 1016.87 1016.93 1017.01 1017.06 1017.27 1017.56 1017.67 1017.78 1017.82 1017.97 1018.25 1018.44 1018.54 1018.81 1019.10 1019.26 1019.27 1019.22 1019.06 1018.97 1018.53 1017.92 1017.72 1017.94 1018.48 1019.73 1019.97 1020.02 1020.11 1020.15 1020.21
1011.74 1012.26 1014.12 1014.90 1015.36 1015.72 1015.97 1016.17 1016.29 1016.44 1016.56 1016.71 1017.05 1017.19 1017.38 1017.54 1017.66 1017.87 1017.97 1018.12 1018.29 1018.47 1018.63 1018.85 1019.08 1019.35 1019.47 1019.44 1019.37 1019.13 1018.95 1018.63 1018.19 1017.11 1017.93 1018.82 1018.91 1019.89 1020.08 1020.18 1020.26 1020.45 1020.52
1012.21 1012.50 1014.08 1015.10 1015.56 1015.93 1016.14 1016.39 1016.59 1016.74 1016.94 1017.03 1017.24 1017.41 1017.55 1017.87 1018.03 1018.18 1018.30 1018.49 1018.67 1018.90 1019.11 1019.31 1019.54 1019.66 1019.62 1019.55 1019.35 1019.08 1018.81 1018.30 1016.96 1017.40 1018.01 1018.56 1019.57 1020.11 1020.21 1020.39 1020.56 1020.67 1020.66
1012.33 1012.77 1014.05 1015.26 1015.77 1016.14 1016.41 1016.72 1016.94 1017.06 1017.18 1017.42 1017.59 1017.74 1017.94 1018.17 1018.37 1018.56 1018.74 1018.90 1019.13 1019.33 1019.48 1019.72 1019.86 1019.79 1019.67 1019.52 1019.41 1019.25 1018.98 1018.50 1017.39 1017.62 1017.88 1018.95 1020.12 1020.19 1020.37 1020.60 1020.67 1020.72 1020.73
1012.94 1013.00 1013.86 1014.69 1015.63 1016.30 1016.74 1017.00 1017.22 1017.35 1017.50 1017.75 1018.00 1018.21 1018.35 1018.51 1018.72 1018.96 1019.17 1019.32 1019.52 1019.72 1019.85 1019.97 1019.96 1019.80 1019.72 1019.60 1019.53 1019.47 1019.17 1018.63 1017.60 1017.99 1018.17 1019.11 1020.26 1020.38 1020.60 1020.71 1020.83 1020.97 1021.05
1013.67 1013.82 1013.89 1014.42 1015.08 1015.73 1016.54 1017.23 1017.43 1017.65 1017.82 1018.04 1018.33 1018.58 1018.64 1018.82 1019.02 1019.19 1019.29 1019.51 1019.66 1019.84 1019.91 1019.97 1019.93 1019.89 1019.85 1019.90 1019.88 1019.72 1019.39 1018.77 1017.89 1017.99 1018.46 1019.82 1020.42 1020.67 1020.87 1020.95 1021.04 1021.29 1021.56
1013.73 1014.23 1014.38 1014.50 1014.95 1015.44 1016.03 1017.04 1017.62 1017.89 1018.13 1018.28 1018.51 1018.63 1018.61 1018.31 1018.60 1018.88 1019.39 1019.73 1019.85 1019.95 1020.08 1020.07 1020.06 1019.95 1020.02 1020.11 1020.07 1019.75 1019.18 1018.45 1018.27 1018.35 1019.65 1021.07 1021.02 1021.14 1021.27 1021.49 1021.77 1022.03 1022.24
1013.18 1014.22 1014.64 1014.52 1015.05 1015.47 1015.63 1016.53 1016.75 1017.35 1017.28 1017.47 1017.81 1018.00 1017.74 1018.18 1018.16 1018.41 1019.40 1019.81 1019.86 1019.92 1019.90 1019.91 1019.98 1019.79 1019.60 1018.81 1019.54 1019.56 1019.14 1019.20 1019.30 1020.19 1021.20 1021.62 1021.54 1021.57 1021.88 1022.22 1022.48 1022.68 1022.84
1012.40 1013.55 1014.44 1014.64 1014.97 1015.15 1015.38 1015.91 1016.14 1016.60 1017.14 1017.50 1017.81 1017.72 1018.03 1018.22 1018.54 1018.23 1018.75 1018.95 1019.13 1019.53 1018.65 1018.96 1018.99 1018.60 1019.04 1018.87 1019.40 1019.75 1019.97 1019.88 1021.05 1021.94 1022.58 1022.21 1021.92 1021.95 1022.47 1022.84 1023.06 1023.34 1023.47
1011.85 1013.05 1013.98 1014.58 1014.73 1014.92 1015.31 1015.65 1015.96 1016.13 1016.64 1017.00 1017.42 1017.93 1018.04 1017.80 1018.00 1017.93 1017.91 1018.35 1018.56 1018.42 1018.76 1018.75 1019.27 1019.75 1019.92 1020.19 1020.46 1020.77 1021.01 1021.24 1022.00 1022.91 1023.23 1022.84 1022.60 1022.75 1022.97 1023.28 1023.53 1023.81 1024.12
1011.54 1012.61 1013.58 1014.30 1014.71 1015.09 1015.25 1015.49 1015.92 1016.22 1016.26 1016.59 1017.17 1017.61 1017.49 1017.46 1017.85 1017.88 1018.16 1018.00 1018.17 1018.54 1018.80 1019.18 1019.72 1020.16 1020.60 1020.77 1021.14 1021.48 1021.80 1021.93 1022.16 1023.14 1024.21 1023.89 1023.58 1023.43 1023.59 1023.69 1023.86 1024.22 1024.59
1011.38 1012.33 1013.44 1014.17 1014.62 1014.98 1015.17 1015.62 1015.78 1016.14 1016.69 1016.58 1016.95 1017.22 1017.65 1017.39 1017.79 1017.88 1018.30 1018.38 1018.62 1019.08 1019.05 1019.35 1019.71 1019.90 1020.56 1021.35 1021.87 1022.17 1022.37 1022.53 1022.81 1023.14 1024.42 1024.85 1024.71 1024.68 1024.60 1024.48 1024.55 1024.83 1025.15
1011.21 1012.16 1013.40 1013.96 1014.56 1015.01 1015.32 1015.70 1015.74 1015.99 1016.22 1016.54 1016.80 1017.39 1017.54 1017.63 1017.99 1018.00 1018.21 1018.64 1018.98 1019.48 1019.88 1020.18 1020.36 1020.81 1021.27 1021.84 1022.43 1022.79 1023.03 1023.31 1023.52 1023.65 1023.63 1024.22 1025.28 1025.81 1025.87 1025.73 1025.73 1025.77 1025.76
1011.07 1012.02 1013.17 1013.70 1014.44 1014.93 1015.12 1015.34 1015.42 1016.00 1016.14 1016.34 1016.83 1017.26 1017.57 1017.74 1018.07 1018.28 1018.52 1018.91 1019.40 1019.64 1019.83 1020.11 1020.42 1020.97 1021.53 1021.99 1022.44 1022.80 1023.26 1023.71 1024.15 1024.31 1024.49 1024.53 1024.70 1025.14 1026.51 1026.77 1026.65 1026.65 1026.51
1010.83 1011.87 1012.87 1013.61 1014.23 1014.75 1015.15 1015.24 1015.57 1015.98 1016.09 1016.44 1016.81 1017.16 1017.82 1017.99 1018.25 1018.21 1018.49 1019.18 1019.63 1019.64 1020.01 1020.32 1020.74 1021.12 1021.82 1022.36 1022.86 1023.22 1023.50 1023.81 1024.28 1024.75 1025.27 1025.64 1025.92 1025.74 1026.02 1027.36 1027.34 1027.28 1027.16
1010.36 1011.68 1012.52 1013.30 1013.84 1014.62 1015.00 1015.27 1015.56 1016.03 1016.21 1016.60 1016.80 1017.18 1017.91 1018.11 1018.54 1018.59 1018.87 1019.39 1019.53 1019.60 1020.08 1020.38 1020.96 1021.49 1021.94 1022.48 1023.06 1023.75 1024.15 1024.41 1024.70 1024.98 1025.33 1025.61 1026.15 1026.37 1026.41 1026.54 1026.28 1027.16 1027.46
1010.05 1011.27 1011.99 1012.92 1013.56 1014.26 1014.62 1014.81 1015.26 1015.55 1016.26 1016.53 1016.86 1017.55 1018.10 1018.34 1018.76 1018.91 1018.98 1019.53 1019.70 1019.86 1020.18 1020.89 1021.13 1021.74 1022.31 1022.92 1023.24 1024.02 1024.74 1025.18 1025.24 1025.38 1025.61 1025.82 1026.26 1026.55 1026.74 1026.71 1026.56 1026.38 1026.59
1009.56 1010.92 1011.49 1012.22 1012.99 1013.68 1014.23 1014.60 1015.13 1015.51 1016.04 1016.32 1016.80 1017.70 1017.98 1018.55 1018.90 1019.01 1019.13 1019.47 1019.87 1020.26 1020.80 1021.01 1021.22 1021.55 1022.31 1022.78 1022.18 1022.87 1023.83 1024.96 1025.49 1025.86 1026.09 1026.44 1026.71 1026.59 1026.91 1027.15 1027.16 1027.14 1026.77
1009.34 1010.36 1010.89 1011.54 1012.29 1012.76 1013.21 1014.33 1015.10 1015.91 1016.45 1016.74 1017.18 1017.71 1018.17 1018.58 1018.84 1019.00 1019.12 1019.33 1019.93 1020.29 1020.54 1020.88 1021.12 1021.31 1021.75 1022.62 1022.51 1022.11 1022.33 1022.20 1024.51 1025.74 1026.24 1026.50 1026.91 1026.80 1026.84 1027.12 1027.26 1027.25 1027.18
1008.74 1009.91 1010.76 1011.32 1011.99 1012.22 1012.80 1013.63 1014.55 1014.67 1015.12 1015.68 1016.57 1017.19 1017.98 1018.48 1018.81 1019.11 1019.41 1019.51 1019.67 1019.79 1020.32 1020.79 1021.05 1021.30 1021.45 1021.97 1022.72 1022.92 1022.71 1022.42 1022.96 1024.53 1025.86 1026.63 1026.95 1027.03 1027.37 1027.08 1027.17 1027.29 1027.31
1008.56 1009.64 1010.65 1011.29 1012.28 1011.80 1012.82 1012.98 1013.92 1014.10 1014.49 1015.24 1016.20 1017.15 1017.68 1018.40 1018.84 1019.12 1019.53 1019.76 1019.90 1019.99 1020.40 1020.74 1021.16 1021.41 1021.54 1021.41 1021.99 1022.64 1022.76 1022.87 1023.04 1023.07 1024.25 1025.91 1026.58 1026.87 1027.14 1027.37 1027.34 1027.21 1027.38
1008.31 1008.77 1009.61 1010.92 1011.03 1012.08 1011.98 1012.54 1013.44 1013.75 1014.14 1015.24 1015.95 1016.77 1017.47 1018.22 1018.88 1019.24 1019.50 1019.84 1020.05 1020.18 1020.66 1020.94 1021.26 1021.42 1021.49 1021.71 1021.79 1022.11 1022.14 1022.24 1022.45 1022.88 1023.33 1024.79 1025.34 1026.31 1026.72 1027.15 1027.32 1027.35 1027.37
Wind_Speed
11 19 15 12 10 8 7 7 8 8 9 10 11 13 11 10 14 15 11 12 14 18 21 21 18 18 18 18 17 15 13 13 12 13 13 15 15 14 12 7 5 15 12
16 19 14 12 10 9 8 8 8 10 11 10 10 11 13 14 16 15 13 14 17 18 21 20 19 18 18 15 14 13 12 12 10 11 15 15 13 13 12 13 17 13 11
18 18 17 12 10 10 10 10 10 12 12 11 12 17 10 15 15 14 14 16 16 17 20 19 19 18 17 13 11 10 10 9 8 5 11 11 14 13 12 12 11 11 11
17 17 17 12 10 10 11 9 10 13 12 11 11 14 14 14 14 14 14 16 16 17 18 18 17 16 14 11 9 7 6 7 5 7 7 13 14 12 11 10 11 9 10
16 16 17 12 11 10 11 10 10 12 12 11 11 13 14 14 15 15 14 13 15 16 17 16 15 13 11 9 7 6 6 6 6 8 12 10 12 11 9 7 11 9 10
15 15 18 12 12 11 10 10 11 11 11 12 11 13 14 15 15 14 13 14 15 16 15 14 13 11 9 7 6 7 5 4 13 13 14 8 12 11 9 8 8 7 6
14 15 16 12 11 11 11 11 10 10 10 11 12 13 15 14 14 13 14 14 14 14 14 12 10 9 7 6 6 7 5 5 8 11 11 10 11 9 9 7 6 6 6
15 16 17 14 11 10 10 9 10 9 11 11 11 12 13 13 13 12 13 13 12 11 10 9 8 7 7 8 8 7 5 8 5 8 11 11 9 9 8 7 7 7 8
14 14 14 15 13 10 9 10 9 9 10 11 11 11 11 11 12 12 12 11 10 9 8 8 7 7 8 9 9 8 6 9 6 7 7 8 7 9 9 9 9 11 13
14 10 14 14 13 12 11 9 9 9 10 11 11 10 10 11 11 10 11 9 8 8 8 7 8 6 7 8 7 4 3 8 8 7 7 9 9 14 15 16 19 20 21
13 13 9 13 12 11 11 11 10 10 9 12 12 10 13 10 11 13 12 8 8 7 7 6 5 5 7 9 6 2 9 5 5 7 9 10 13 16 18 20 22 22 21
18 15 12 13 13 12 10 12 10 11 9 8 10 10 8 8 7 10 9 7 7 6 6 6 6 7 12 7 6 6 6 7 10 12 8 11 15 19 21 22 21 21 20
21 14 15 12 13 13 11 9 7 6 6 6 8 7 8 8 8 7 7 7 7 7 7 8 8 3 7 5 6 5 6 7 8 8 11 9 12 22 22 21 21 20 19
22 19 17 15 14 12 9 8 8 8 7 7 7 7 6 5 5 5 5 6 5 3 5 4 5 7 9 9 9 10 10 10 7 7 13 17 15 20 21 20 19 19 18
21 20 18 17 14 12 12 9 8 7 7 8 7 7 5 5 4 5 5 4 3 4 5 5 6 7 8 9 10 10 10 10 10 9 8 23 17 16 17 17 17 18 17
20 20 19 17 15 14 11 12 9 8 8 7 6 7 7 5 5 5 5 4 5 4 4 5 6 6 7 8 9 10 10 9 9 11 9 12 23 23 21 18 18 17 16
17 19 18 17 15 14 13 11 9 9 8 7 6 7 6 5 5 5 4 4 5 6 7 6 6 7 7 8 10 9 9 9 9 8 7 8 11 21 19 18 16 15 14
16 18 19 15 16 15 12 11 9 8 7 7 6 6 7 7 7 6 5 5 5 5 5 5 5 6 7 7 7 7 8 8 9 8 7 6 6 7 14 16 15 15 15
18 18 18 17 18 16 13 10 9 10 7 6 6 6 7 7 7 5 5 5 6 4 4 5 5 6 7 7 8 7 7 7 7 8 9 9 8 6 6 12 14 14 14
18 18 19 16 17 16 11 10 8 8 7 6 6 5 7 6 6 5 5 6 5 5 5 5 6 6 7 8 8 8 7 6 6 6 7 7 7 7 6 6 4 9 11
18 18 19 18 17 13 11 11 10 9 8 7 6 7 7 6 7 6 5 6 4 5 5 8 8 10 9 9 9 9 7 6 6 5 5 5 6 7 6 6 5 4 6
20 19 20 20 20 15 12 10 8 8 7 7 6 7 7 8 8 7 6 6 7 5 7 8 10 8 8 10 4 6 6 5 5 4 4 5 6 5 6 7 6 6 5
19 21 21 21 22 19 17 11 8 8 6 6 7 7 8 9 8 7 8 6 7 7 7 9 10 10 8 8 7 4 4 3 7 5 5 5 4 4 4 6 6 6 6
19 17 18 19 20 18 18 14 15 12 11 8 9 8 8 9 8 7 6 6 7 5 6 8 8 7 6 9 7 4 3 7 5 6 5 5 5 5 4 4 4 5 6
17 19 16 16 16 16 17 16 13 13 9 8 8 11 9 8 8 8 7 6 6 5 6 7 8 8 7 7 8 5 4 3 2 3 6 6 5 4 4 4 4 4 5
17 17 17 19 18 16 17 17 17 16 12 10 12 11 8 7 7 7 7 6 6 5 6 6 8 9 7 6 6 6 5 4 5 4 4 8 6 6 4 3 3 4 5
Wind_Direction
150 128 140 147 146 136 120 104 88 87 84 86 97 113 119 121 123 133 118 114 110 107 101 96 95 98 99 95 94 93 94 92 103 100 99 92 92 94 95 89 182 90 85
138 138 137 146 148 144 130 114 98 93 91 93 94 96 102 114 107 114 132 118 110 102 97 100 103 100 98 96 97 97 91 86 99 116 114 101 96 95 83 51 51 86 84
139 136 150 143 151 146 136 121 108 100 104 102 100 97 97 101 104 105 106 106 100 101 105 108 107 105 104 101 94 94 94 95 96 143 195 100 94 90 86 80 81 83 80
139 142 147 142 149 144 136 126 115 109 102 100 101 109 108 105 101 100 95 101 108 110 107 106 102 97 91 84 81 88 103 111 152 203 110 97 94 89 90 91 84 79 86
143 148 124 138 145 144 132 124 118 112 108 102 102 104 102 102 102 103 102 104 103 102 104 102 98 96 89 79 79 86 103 128 202 215 98 84 94 96 93 88 119 88 46
144 148 124 137 140 139 131 123 121 114 111 110 109 106 102 103 102 101 102 103 101 103 100 91 86 82 77 77 83 80 81 170 217 103 98 87 83 102 99 83 79 86 85
149 133 143 130 131 137 132 127 118 112 109 105 106 111 107 106 98 96 96 96 95 96 96 95 91 86 84 83 74 63 52 319 110 101 99 98 96 116 108 106 105 99 89
150 143 137 134 133 129 120 117 111 109 105 101 99 103 110 113 109 102 102 102 99 97 95 93 87 80 69 63 58 63 34 331 134 102 113 94 114 116 112 114 108 98 87
135 142 149 151 140 119 122 120 116 108 106 100 98 103 108 107 107 108 107 106 107 105 100 91 78 65 66 59 59 64 33 325 78 87 115 114 120 113 106 89 85 80 79
147 148 148 149 157 151 145 124 122 115 112 106 104 106 108 106 108 113 118 106 105 100 93 83 80 72 71 60 67 73 230 262 59 85 64 91 110 99 90 86 89 86 82
147 151 153 153 151 147 142 132 133 120 111 117 122 130 163 137 141 166 83 123 116 108 108 103 100 114 123 88 71 6 283 40 72 55 75 77 93 97 91 87 85 85 82
155 161 157 164 154 154 148 155 145 143 150 135 137 151 140 143 130 121 119 138 124 133 130 123 143 182 212 127 126 207 63 55 38 51 74 80 95 96 93 90 88 84 81
161 163 165 173 159 165 147 158 155 148 142 135 137 164 126 141 155 160 144 155 153 195 169 174 170 111 53 67 67 75 84 86 93 68 28 56 105 99 95 90 86 80 73
166 166 170 172 164 167 155 173 154 147 148 150 143 150 144 163 165 153 152 137 170 150 124 114 91 90 81 83 80 71 58 60 67 77 43 31 91 95 96 93 86 79 68
169 169 172 175 169 166 168 154 165 144 166 135 163 162 171 157 156 176 138 156 122 140 123 114 107 101 103 88 87 94 98 98 97 84 60 49 59 81 90 89 86 78 67
173 170 168 181 173 168 172 165 160 169 138 164 154 149 175 185 166 163 160 145 122 128 106 116 117 112 90 94 88 87 91 96 100 108 90 58 54 56 55 61 70 69 64
179 170 169 176 174 174 165 169 173 162 168 158 142 152 150 164 163 158 144 147 124 106 124 124 118 106 106 99 99 96 97 94 94 90 96 113 85 60 55 56 60 60 58
184 174 174 173 174 177 173 172 171 158 171 161 163 153 152 146 144 156 151 143 133 144 136 135 135 124 121 115 111 105 101 99 95 90 80 72 68 94 75 58 59 59 52
184 179 178 175 177 176 171 173 170 161 176 167 166 164 158 149 151 159 146 135 172 152 146 150 143 140 129 123 114 106 103 105 99 88 88 83 67 52 96 90 74 56 50
181 181 182 179 175 178 169 171 171 173 165 166 173 177 170 153 156 166 142 151 182 168 159 157 147 146 137 131 118 104 98 101 100 98 96 86 80 75 68 45 125 94 65
178 185 185 180 176 179 177 179 177 177 176 176 176 161 165 154 163 173 160 161 185 177 162 159 151 150 142 137 130 116 106 96 84 87 81 83 88 77 68 65 40 18 115
179 188 188 185 179 182 185 181 186 183 186 178 160 167 169 170 173 175 172 170 177 158 160 167 166 156 156 176 164 145 151 143 115 84 97 92 65 77 78 67 56 43 20
186 189 193 189 185 187 182 183 173 160 160 178 172 170 171 177 177 179 174 170 166 177 178 175 176 172 167 182 219 293 170 174 148 142 126 100 102 86 86 86 59 44 31
189 190 195 197 196 187 185 177 184 185 183 188 181 172 166 176 174 170 173 170 172 177 177 184 186 189 191 185 188 228 312 93 198 158 150 139 140 121 77 69 69 56 21
188 191 195 194 202 182 189 188 192 205 192 172 174 165 172 170 173 167 170 171 167 179 170 181 180 203 196 192 198 183 177 169 164 166 155 163 164 141 114 82 34 36 23
192 189 193 199 193 203 184 195 200 201 189 178 177 176 173 169 169 168 157 163 162 154 170 182 188 189 199 202 194 193 197 204 181 190 148 159 168 159 144 99 50 27 14